Weather History for KADC - January, 2012

Change the Weather History Date:

Monday, January 9, 2012

  Actual Average (KPKD) Record (KPKD)
Temperature  
Mean Temperature 33 °F -  
Max Temperature 42 °F 11 °F 45 °F (1958)
Min Temperature 24 °F -10 °F -40 °F (1977)
Degree Days  
Heating Degree Days 32    
Moisture  
Dew Point 23 °F    
Average Humidity 63    
Maximum Humidity 80    
Minimum Humidity 52    
Precipitation  
Precipitation 0.00 in - - ()
Sea Level Pressure  
Sea Level Pressure 29.84 in    
Wind  
Wind Speed 12 mph (West)    
Max Wind Speed 21 mph    
Max Gust Speed 29 mph    
Visibility 10 miles    
Events      
Averages and records for this station are not official NWS values.
T = Trace of Precipitation, MM = Missing Value Source: NWS Daily Summary

Daily Weather History Graph

Daily Weather History Graph

Search for Another Location

Airport or City:

Trip Planner

Search our weather history database for the weather conditions in past years. The results will help you decide how hot, cold, wet, or windy it might be!

Date:

Astronomy

Jan. 09, 2012 Rise Set
Actual Time 8:03 AM CST 4:52 PM CST
Civil Twilight 7:29 AM CST 5:26 PM CST
Nautical Twilight 6:51 AM CST 6:04 PM CST
Astronomical Twilight 6:14 AM CST 6:41 PM CST
Moon 5:44 PM CST (1/9) 8:01 AM CST (1/9)
Length of Visible Light 9h 57m
Length of Day
8h 49m
Full, 100% of the Moon is Illuminated
Jan 9
Full
Jan 16
Last Quarter
Jan 23
New
Jan 30
First Quarter
Feb 7
Full

Hourly Weather History & Observations

Time (CST) Temp. Windchill Dew Point Humidity Pressure Visibility Wind Dir Wind Speed Gust Speed Precip Events Conditions
12:15 AM 33.8 °F 24.8 °F 21.2 °F 60% 29.89 in 10.0 mi SW 12.7 mph 18.4 mph N/A   Mostly Cloudy
12:35 AM 33.8 °F 25.3 °F 21.2 °F 60% 29.87 in 10.0 mi SW 11.5 mph 20.7 mph N/A   Scattered Clouds
12:53 AM 33.8 °F 23.9 °F 21.2 °F 60% 29.85 in 10.0 mi SW 15.0 mph 20.7 mph N/A   Clear
1:15 AM 33.8 °F 24.3 °F 19.4 °F 56% 29.84 in 10.0 mi SW 13.8 mph 21.9 mph N/A   Scattered Clouds
1:34 AM 33.8 °F 24.8 °F 19.4 °F 56% 29.83 in 10.0 mi SW 12.7 mph 20.7 mph N/A   Scattered Clouds
1:53 AM 33.8 °F 23.2 °F 19.4 °F 56% 29.82 in 10.0 mi WSW 17.3 mph 24.2 mph N/A   Clear
2:15 AM 33.8 °F 23.2 °F 19.4 °F 56% 29.81 in 10.0 mi WSW 17.3 mph 21.9 mph N/A   Clear
2:35 AM 33.8 °F 23.5 °F 19.4 °F 56% 29.81 in 10.0 mi WSW 16.1 mph 21.9 mph N/A   Clear
2:53 AM 33.8 °F 24.8 °F 19.4 °F 56% 29.81 in 10.0 mi WSW 12.7 mph 19.6 mph N/A   Clear
3:15 AM 33.8 °F 23.2 °F 19.4 °F 56% 29.81 in 10.0 mi WSW 17.3 mph 20.7 mph N/A   Clear
3:35 AM 33.8 °F 22.2 °F 17.6 °F 52% 29.79 in 10.0 mi WSW 20.7 mph 28.8 mph N/A   Clear
3:53 AM 32.0 °F 20.5 °F 17.6 °F 55% 29.78 in 10.0 mi WSW 18.4 mph 26.5 mph N/A   Clear
4:15 AM 30.2 °F 17.4 °F 17.6 °F 60% 29.80 in 10.0 mi West 20.7 mph 26.5 mph N/A   Clear
4:34 AM 30.2 °F 19.3 °F 17.6 °F 60% 29.80 in 10.0 mi West 15.0 mph 23.0 mph N/A   Clear
4:53 AM 28.4 °F 16.6 °F 17.6 °F 64% 29.79 in 10.0 mi West 16.1 mph 20.7 mph N/A   Clear
5:15 AM 28.4 °F 17.5 °F 19.4 °F 69% 29.80 in 10.0 mi West 13.8 mph 20.7 mph N/A   Clear
5:34 AM 28.4 °F 17.5 °F 19.4 °F 69% 29.81 in 10.0 mi West 13.8 mph 19.6 mph N/A   Clear
5:53 AM 28.4 °F 18.0 °F 19.4 °F 69% 29.80 in 10.0 mi WSW 12.7 mph - N/A   Clear
6:15 AM 28.4 °F 18.5 °F 19.4 °F 69% 29.81 in 10.0 mi West 11.5 mph - N/A   Clear
6:34 AM 26.6 °F 16.2 °F 19.4 °F 74% 29.81 in 10.0 mi West 11.5 mph - N/A   Clear
6:53 AM 26.6 °F 16.2 °F 19.4 °F 74% 29.81 in 10.0 mi WSW 11.5 mph - N/A   Clear
7:15 AM 26.6 °F 17.5 °F 19.4 °F 74% 29.82 in 10.0 mi West 9.2 mph - N/A   Clear
7:35 AM 26.6 °F 16.8 °F 19.4 °F 74% 29.82 in 10.0 mi West 10.4 mph - N/A   Clear
7:52 AM 24.8 °F 15.3 °F 19.4 °F 80% 29.83 in 10.0 mi West 9.2 mph - N/A   Clear
8:15 AM 24.8 °F 15.3 °F 19.4 °F 80% 29.83 in 10.0 mi West 9.2 mph - N/A   Clear
8:35 AM 26.6 °F 17.5 °F 19.4 °F 74% 29.83 in 10.0 mi West 9.2 mph - N/A   Clear
8:53 AM 26.6 °F 17.5 °F 19.4 °F 74% 29.83 in 10.0 mi West 9.2 mph - N/A   Clear
9:14 AM 28.4 °F 19.7 °F 21.2 °F 74% 29.83 in 10.0 mi West 9.2 mph - N/A   Clear
9:35 AM 30.2 °F 23.4 °F 21.2 °F 69% 29.83 in 10.0 mi West 6.9 mph - N/A   Clear
10:15 AM 33.8 °F 27.7 °F 23.0 °F 65% 29.85 in 10.0 mi West 6.9 mph - N/A   Clear
10:35 AM 35.6 °F 27.5 °F 24.8 °F 65% 29.85 in 10.0 mi West 11.5 mph 17.3 mph N/A   Clear
10:52 AM 35.6 °F 28.0 °F 24.8 °F 65% 29.85 in 10.0 mi West 10.4 mph 19.6 mph N/A   Clear
11:15 AM 37.4 °F 30.3 °F 24.8 °F 60% 29.85 in 10.0 mi West 10.4 mph - N/A   Clear
11:34 AM 37.4 °F 30.8 °F 24.8 °F 60% 29.85 in 10.0 mi West 9.2 mph 17.3 mph N/A   Clear
11:53 AM 39.2 °F 31.2 °F 26.6 °F 61% 29.85 in 10.0 mi West 13.8 mph - N/A   Clear
12:15 PM 39.2 °F 31.6 °F 26.6 °F 61% 29.85 in 10.0 mi WNW 12.7 mph - N/A   Clear
12:35 PM 39.2 °F 32.5 °F 26.6 °F 61% 29.84 in 10.0 mi West 10.4 mph - N/A   Clear
12:53 PM 41.0 °F 35.8 °F 26.6 °F 57% 29.84 in 10.0 mi West 8.1 mph - N/A   Clear
1:15 PM 41.0 °F 34.7 °F 26.6 °F 57% 29.84 in 10.0 mi WNW 10.4 mph - N/A   Clear
1:34 PM 42.8 °F 38.0 °F 26.6 °F 53% 29.84 in 10.0 mi West 8.1 mph - N/A   Clear
1:53 PM 42.8 °F 36.2 °F 26.6 °F 53% 29.85 in 10.0 mi West 12.7 mph 18.4 mph N/A   Clear
2:35 PM 42.8 °F 36.6 °F 26.6 °F 53% 29.85 in 10.0 mi West 11.5 mph - N/A   Clear
2:53 PM 42.8 °F 37.0 °F 26.6 °F 53% 29.86 in 10.0 mi WNW 10.4 mph - N/A   Clear
3:15 PM 42.8 °F 37.5 °F 28.4 °F 57% 29.86 in 10.0 mi West 9.2 mph - N/A   Clear
3:35 PM 42.8 °F 39.3 °F 28.4 °F 57% 29.87 in 10.0 mi West 5.8 mph - N/A   Clear
3:52 PM 42.8 °F 38.0 °F 28.4 °F 57% 29.88 in 10.0 mi WNW 8.1 mph - N/A   Clear
4:15 PM 42.8 °F 38.0 °F 28.4 °F 57% 29.89 in 10.0 mi WNW 8.1 mph - N/A   Clear
4:35 PM 41.0 °F 37.1 °F 26.6 °F 57% 29.90 in 10.0 mi West 5.8 mph - N/A   Clear
4:52 PM 39.2 °F 34.2 °F 26.6 °F 61% 29.90 in 10.0 mi West 6.9 mph - N/A   Clear
5:15 PM 37.4 °F 32.8 °F 26.6 °F 65% 29.91 in 10.0 mi West 5.8 mph - N/A   Clear
5:35 PM 37.4 °F 34.9 °F 26.6 °F 65% 29.91 in 10.0 mi WNW 3.5 mph - N/A   Clear
5:52 PM 37.4 °F 33.8 °F 26.6 °F 65% 29.91 in 10.0 mi WNW 4.6 mph - N/A   Clear
6:15 PM 33.8 °F 29.6 °F 26.6 °F 75% 29.91 in 10.0 mi West 4.6 mph - N/A   Clear
6:35 PM 33.8 °F 28.6 °F 26.6 °F 75% 29.91 in 10.0 mi West 5.8 mph - N/A   Clear
6:52 PM 33.8 °F 27.7 °F 26.6 °F 75% 29.92 in 10.0 mi West 6.9 mph - N/A   Clear
7:14 PM 33.8 °F 28.6 °F 26.6 °F 75% 29.91 in 10.0 mi West 5.8 mph - N/A   Clear
7:35 PM 33.8 °F 30.8 °F 26.6 °F 75% 29.90 in 10.0 mi West 3.5 mph - N/A   Clear
8:15 PM 28.4 °F 24.6 °F 24.8 °F 86% 29.91 in 10.0 mi WSW 3.5 mph - N/A   Clear
8:35 PM 28.4 °F - 24.8 °F 86% 29.90 in 10.0 mi Calm Calm - N/A   Clear
8:53 PM 26.6 °F - 23.0 °F 86% 29.90 in 10.0 mi Calm Calm - N/A   Clear
9:15 PM 26.6 °F - 23.0 °F 86% 29.90 in 10.0 mi Calm Calm - N/A   Clear
9:34 PM 28.4 °F - 24.8 °F 86% 29.88 in 10.0 mi Calm Calm - N/A   Clear
9:53 PM 24.8 °F - 21.2 °F 86% 29.88 in 10.0 mi Calm Calm - N/A   Clear
10:14 PM 23.0 °F - 21.2 °F 93% 29.88 in 10.0 mi Calm Calm - N/A   Clear
10:35 PM 23.0 °F - 21.2 °F 93% 29.89 in 10.0 mi Calm Calm - N/A   Clear
10:53 PM 24.8 °F - 23.0 °F 93% 29.89 in 10.0 mi Calm Calm - N/A   Clear
11:14 PM 23.0 °F - 21.2 °F 93% 29.89 in 10.0 mi Calm Calm - N/A   Clear
11:35 PM 23.0 °F - 21.2 °F 93% 29.89 in 10.0 mi Calm Calm - N/A   Clear
11:53 PM 21.2 °F - 21.2 °F 100% 29.90 in 10.0 mi Calm Calm - N/A   Clear